Dunkirk, NY

6:42 PM EDT on September 19, 2017 (GMT -0400)
Chautauqua County-Dunkirk

Weather History for KDKK - April, 2014

Change the Weather History Date:

Wednesday, April 30, 2014

  Actual Average Record
Temperature  
Mean Temperature 52 °F -  
Max Temperature 55 °F 63 °F 83 °F (1970)
Min Temperature 48 °F 43 °F 28 °F (1978)
Degree Days  
Heating Degree Days 14    
Growing Degree Days 2 (Base 50)    
Moisture  
Dew Point 45 °F    
Average Humidity 80    
Maximum Humidity 93    
Minimum Humidity 63    
Precipitation  
Precipitation 0.50 in - - ()
Sea Level Pressure  
Sea Level Pressure 29.90 in    
Wind  
Wind Speed 15 mph (SE)    
Max Wind Speed 32 mph    
Max Gust Speed 47 mph    
Visibility 9 miles    
Events Rain , Thunderstorm    
Averages and records for this station are not official NWS values.
T = Trace of Precipitation, MM = Missing Value Source: NWS Daily Summary

Daily Weather History Graph

Daily Weather History Graph

Search for Another Location

Airport or City:

Trip Planner

Search our weather history database for the weather conditions in past years. The results will help you decide how hot, cold, wet, or windy it might be!

Date:

Astronomy

Apr. 30, 2014 Rise Set
Actual Time 6:13 AM EDT 8:15 PM EDT
Civil Twilight 5:42 AM EDT 8:46 PM EDT
Nautical Twilight 5:05 AM EDT 9:24 PM EDT
Astronomical Twilight 4:24 AM EDT 10:05 PM EDT
Moon 7:12 AM EDT (4/30) 9:54 PM EDT (4/30)
Length of Visible Light 15h 03m
Length of Day
14h 02m
New Moon, 2% of the Moon is Illuminated
Apr 30
New Moon
May 6
First Quarter
May 14
Full
May 21
Last Quarter
May 28
New

Hourly Weather History & Observations

Time (EDT) Temp. Dew Point Humidity Pressure Visibility Wind Dir Wind Speed Gust Speed Precip Events Conditions
12:53 AM 52.0 °F 39.9 °F 63% 29.96 in 10.0 mi South 31.1 mph 47.2 mph 0.00 in Rain Light Rain
1:53 AM 51.1 °F 39.9 °F 66% 29.90 in 10.0 mi SSE 32.2 mph 44.9 mph 0.00 in Rain Light Rain
2:53 AM 52.0 °F 41.0 °F 66% 29.96 in 10.0 mi Variable 5.8 mph - 0.00 in   Overcast
3:13 AM 51.1 °F 41.0 °F 68% 29.95 in 10.0 mi NNW 10.4 mph - N/A   Overcast
3:53 AM 52.0 °F 41.0 °F 66% 30.01 in 10.0 mi SSW 11.5 mph 20.7 mph N/A   Overcast
4:24 AM 51.1 °F 42.1 °F 71% 30.02 in 8.0 mi SSE 6.9 mph - 0.01 in Rain , Thunderstorm Light Thunderstorms and Rain
4:40 AM 50.0 °F 43.0 °F 77% 30.01 in 8.0 mi SE 10.4 mph 19.6 mph 0.06 in Rain , Thunderstorm Light Rain
4:48 AM 48.2 °F 42.8 °F 82% 29.99 in 5.0 mi East 6.9 mph - 0.08 in Rain Rain
4:49 AM 48.9 °F 43.0 °F 80% 30.00 in 5.0 mi East 9.2 mph - 0.08 in Rain Rain
5:53 AM 48.9 °F 43.0 °F 80% 29.99 in 10.0 mi Variable 6.9 mph 20.7 mph 0.07 in Rain Light Rain
7:53 AM 50.0 °F 43.0 °F 77% 29.99 in 9.0 mi Calm Calm - 0.01 in Rain Light Rain
8:53 AM 50.0 °F 43.0 °F 77% 29.96 in 10.0 mi ESE 5.8 mph 20.7 mph 0.00 in Rain Light Rain
9:53 AM 50.0 °F 44.1 °F 80% 29.92 in 10.0 mi SSE 24.2 mph 34.5 mph 0.05 in Rain Light Rain
11:53 AM 53.1 °F 45.0 °F 74% 29.89 in 10.0 mi SSE 25.3 mph 34.5 mph 0.00 in   Overcast
12:53 PM 53.1 °F 46.9 °F 80% 29.88 in 10.0 mi SSE 18.4 mph 27.6 mph 0.00 in Rain Light Rain
1:53 PM 52.0 °F 46.0 °F 80% 29.87 in 10.0 mi South 23.0 mph 33.4 mph 0.01 in   Overcast
2:53 PM 54.0 °F 48.0 °F 80% 29.84 in 10.0 mi ESE 10.4 mph - 0.01 in Rain Light Rain
3:53 PM 52.0 °F 48.0 °F 86% 29.86 in 6.0 mi NW 9.2 mph 18.4 mph 0.05 in Rain Light Rain
4:18 PM 50.0 °F 48.0 °F 93% 29.87 in 4.0 mi WNW 6.9 mph - 0.03 in Rain Rain
4:53 PM 48.0 °F 46.0 °F 93% 29.87 in 3.0 mi North 4.6 mph - 0.10 in Rain Rain
5:53 PM 50.0 °F 48.0 °F 93% 29.86 in 10.0 mi Calm Calm - 0.01 in Rain Light Rain
6:53 PM 53.1 °F 50.0 °F 89% 29.80 in 10.0 mi East 12.7 mph - 0.03 in   Overcast
7:53 PM 54.0 °F 48.9 °F 83% 29.80 in 10.0 mi SSE 8.1 mph - 0.00 in   Overcast
8:53 PM 55.0 °F 50.0 °F 83% 29.79 in 10.0 mi South 11.5 mph 23.0 mph 0.00 in   Overcast
9:53 PM 51.1 °F 48.9 °F 92% 29.80 in 10.0 mi Calm Calm - 0.01 in   Overcast
10:53 PM 50.0 °F 48.0 °F 93% 29.75 in 6.0 mi ENE 8.1 mph - 0.07 in Rain Rain
11:53 PM 55.0 °F 51.1 °F 86% 29.75 in 10.0 mi South 8.1 mph - 0.00 in Rain Light Rain